Clinton, NC

8:05 AM EDT on July 24, 2017 (GMT -0400)
Sampson County

Weather History for KCTZ - February, 2013

Change the Weather History Date:

Tuesday, February 12, 2013

  Actual Average (KFAY) Record (KFAY)
Temperature  
Mean Temperature 56 °F -  
Max Temperature 63 °F 55 °F 83 °F (2017)
Min Temperature 48 °F 30 °F 10 °F (1973)
Degree Days  
Heating Degree Days 9    
Growing Degree Days 6 (Base 50)    
Moisture  
Dew Point 46 °F    
Average Humidity 72    
Maximum Humidity 100    
Minimum Humidity 31    
Precipitation  
Precipitation 0.09 in - - ()
Sea Level Pressure  
Sea Level Pressure 30.01 in    
Wind  
Wind Speed 5 mph (West)    
Max Wind Speed 10 mph    
Max Gust Speed -    
Visibility 10 miles    
Events Rain    
Averages and records for this station are not official NWS values.
T = Trace of Precipitation, MM = Missing Value Source: NWS Daily Summary

Daily Weather History Graph

Daily Weather History Graph

Search for Another Location

Airport or City:

Trip Planner

Search our weather history database for the weather conditions in past years. The results will help you decide how hot, cold, wet, or windy it might be!

Date:

Astronomy

Feb. 12, 2013 Rise Set
Actual Time 7:02 AM EST 5:53 PM EST
Civil Twilight 6:36 AM EST 6:19 PM EST
Nautical Twilight 6:06 AM EST 6:49 PM EST
Astronomical Twilight 5:37 AM EST 7:18 PM EST
Moon 8:06 AM EST (2/12) 8:42 PM EST (2/12)
Length of Visible Light 11h 43m
Length of Day
10h 51m
Waxing Crescent, 7% of the Moon is Illuminated
Feb 12
Waxing Crescent
Feb 17
First Quarter
Feb 25
Full
Mar 4
Last Quarter
Mar 11
New

Hourly Weather History & Observations

Time (EST) Temp. Dew Point Humidity Pressure Visibility Wind Dir Wind Speed Gust Speed Precip Events Conditions
12:15 AM 60.4 °F 58.5 °F 93% 29.98 in 10.0 mi WSW 6.9 mph - N/A   Clear
12:35 AM 60.1 °F 58.3 °F 94% 29.98 in 10.0 mi WSW 5.8 mph - N/A   Clear
12:55 AM 59.9 °F 58.3 °F 94% 29.98 in 10.0 mi SW 4.6 mph - N/A   Clear
1:15 AM 59.4 °F 58.1 °F 96% 29.98 in 10.0 mi WSW 5.8 mph - N/A   Clear
1:35 AM 59.2 °F 57.6 °F 94% 29.99 in 10.0 mi WSW 8.1 mph - N/A   Clear
1:55 AM 59.0 °F 56.5 °F 91% 30.00 in 10.0 mi SW 6.9 mph - N/A   Clear
2:15 AM 58.8 °F 55.8 °F 90% 29.99 in 10.0 mi SW 8.1 mph - N/A   Clear
2:35 AM 58.3 °F 55.4 °F 90% 30.00 in 10.0 mi WSW 10.4 mph - N/A   Clear
2:55 AM 58.1 °F 55.2 °F 90% 29.99 in 10.0 mi WSW 9.2 mph - N/A   Clear
3:15 AM 57.7 °F 54.9 °F 90% 29.98 in 10.0 mi WSW 9.2 mph - N/A   Clear
3:35 AM 57.4 °F 54.7 °F 91% 29.98 in 10.0 mi WSW 9.2 mph - N/A   Clear
3:55 AM 56.7 °F 54.5 °F 92% 29.98 in 10.0 mi WSW 5.8 mph - N/A   Clear
4:15 AM 56.3 °F 54.5 °F 94% 30.00 in 10.0 mi West 6.9 mph - N/A   Clear
4:35 AM 55.6 °F 54.1 °F 95% 29.99 in 10.0 mi West 4.6 mph - N/A   Clear
4:55 AM 55.2 °F 54.0 °F 96% 30.00 in 10.0 mi WSW 3.5 mph - N/A   Clear
5:15 AM 54.1 °F 53.8 °F 99% 30.00 in 10.0 mi Calm Calm - N/A   Clear
5:35 AM 54.0 °F 53.6 °F 99% 30.00 in 10.0 mi West 3.5 mph - N/A   Clear
5:55 AM 53.8 °F 53.6 °F 99% 30.01 in 10.0 mi WSW 3.5 mph - N/A   Clear
6:15 AM 53.6 °F 53.2 °F 99% 30.01 in 10.0 mi WSW 3.5 mph - N/A   Clear
6:35 AM 52.9 °F 52.7 °F 99% 30.03 in 10.0 mi West 3.5 mph - N/A   Clear
6:55 AM 53.1 °F 52.9 °F 99% 30.03 in 10.0 mi WSW 4.6 mph - N/A   Clear
7:15 AM 52.7 °F 52.7 °F 100% 30.05 in 10.0 mi West 4.6 mph - N/A   Clear
7:35 AM 52.7 °F 52.3 °F 99% 30.04 in 10.0 mi Calm Calm - N/A   Clear
7:55 AM 52.3 °F 52.0 °F 99% 30.05 in 10.0 mi Calm Calm - N/A   Clear
8:15 AM 52.7 °F 51.4 °F 95% 30.06 in 10.0 mi WNW 4.6 mph - N/A   Clear
8:35 AM 53.2 °F 50.9 °F 92% 30.06 in 10.0 mi West 3.5 mph - N/A   Clear
8:55 AM 53.6 °F 49.3 °F 85% 30.07 in 10.0 mi NW 5.8 mph - N/A   Clear
9:15 AM 53.6 °F 47.5 °F 80% 30.07 in 10.0 mi Calm Calm - N/A   Clear
9:35 AM 53.6 °F 45.9 °F 75% 30.08 in 10.0 mi WNW 4.6 mph - N/A   Clear
9:55 AM 53.8 °F 45.3 °F 73% 30.09 in 10.0 mi WNW 3.5 mph - N/A   Clear
10:15 AM 54.7 °F 43.7 °F 66% 30.08 in 10.0 mi NW 3.5 mph - N/A   Clear
10:35 AM 54.5 °F 41.2 °F 61% 30.10 in 10.0 mi NW 5.8 mph - N/A   Clear
10:55 AM 55.8 °F 39.0 °F 53% 30.10 in 10.0 mi NW 6.9 mph - N/A   Clear
11:15 AM 55.4 °F 37.6 °F 51% 30.10 in 10.0 mi WNW 5.8 mph - N/A   Clear
11:35 AM 56.8 °F 35.8 °F 45% 30.09 in 10.0 mi NW 5.8 mph - N/A   Clear
11:55 AM 57.9 °F 34.7 °F 42% 30.07 in 10.0 mi WNW 6.9 mph - N/A   Clear
12:15 PM 58.6 °F 34.5 °F 40% 30.05 in 10.0 mi Calm Calm - N/A   Clear
12:35 PM 60.1 °F 34.5 °F 38% 30.04 in 10.0 mi NNW 4.6 mph - N/A   Clear
12:55 PM 61.2 °F 33.1 °F 35% 30.05 in 10.0 mi North 6.9 mph - N/A   Clear
1:15 PM 62.1 °F 33.4 °F 34% 30.04 in 10.0 mi NNW 4.6 mph - N/A   Clear
1:35 PM 62.4 °F 31.6 °F 31% 30.03 in 10.0 mi NNW 5.8 mph - N/A   Clear
1:55 PM 61.5 °F 31.1 °F 32% 30.00 in 10.0 mi NNW 5.8 mph - N/A   Clear
2:15 PM 62.8 °F 31.6 °F 31% 29.98 in 10.0 mi NW 4.6 mph - N/A   Clear
2:55 PM 63.0 °F 32.4 °F 32% 29.98 in 10.0 mi Calm Calm - N/A   Clear
3:15 PM 63.3 °F 33.3 °F 33% 29.99 in 10.0 mi West 4.6 mph - N/A   Clear
3:35 PM 63.3 °F 32.2 °F 31% 30.00 in 10.0 mi West 4.6 mph - N/A   Clear
3:55 PM 63.1 °F 33.1 °F 33% 30.00 in 10.0 mi SW 5.8 mph - N/A   Clear
4:15 PM 63.3 °F 32.9 °F 32% 29.98 in 10.0 mi West 3.5 mph - N/A   Clear
4:35 PM 62.6 °F 33.3 °F 33% 29.98 in 10.0 mi Calm Calm - N/A   Clear
4:55 PM 60.8 °F 37.6 °F 42% 29.97 in 10.0 mi Calm Calm - N/A   Clear
5:15 PM 60.3 °F 39.6 °F 46% 29.98 in 10.0 mi Calm Calm - N/A   Clear
5:35 PM 58.8 °F 43.2 °F 56% 29.99 in 10.0 mi Calm Calm - N/A   Clear
6:15 PM 55.8 °F 42.6 °F 61% 30.00 in 10.0 mi Calm Calm - N/A   Clear
6:35 PM 55.0 °F 40.8 °F 59% 29.98 in 10.0 mi Calm Calm - N/A   Scattered Clouds
6:55 PM 54.5 °F 42.4 °F 64% 29.98 in 10.0 mi Calm Calm - N/A   Clear
7:15 PM 54.7 °F 44.2 °F 68% 29.98 in 10.0 mi Calm Calm - N/A   Scattered Clouds
7:35 PM 54.0 °F 46.4 °F 76% 29.98 in 10.0 mi Calm Calm - N/A   Scattered Clouds
7:55 PM 54.3 °F 45.1 °F 71% 29.96 in 10.0 mi Calm Calm - N/A   Mostly Cloudy
8:15 PM 55.0 °F 40.5 °F 58% 29.96 in 10.0 mi Calm Calm - N/A   Scattered Clouds
8:35 PM 54.5 °F 41.4 °F 61% 29.95 in 10.0 mi Calm Calm - N/A   Scattered Clouds
9:15 PM 55.0 °F 43.5 °F 65% 29.97 in 10.0 mi Calm Calm - N/A   Overcast
9:35 PM 53.2 °F 46.0 °F 77% 29.98 in 10.0 mi Calm Calm - N/A Rain Light Rain
9:55 PM 52.7 °F 46.2 °F 79% 29.99 in 10.0 mi WNW 3.5 mph - N/A Rain Light Rain
10:35 PM 50.9 °F 49.8 °F 96% 30.00 in 10.0 mi Calm Calm - 0.02 in Rain Light Rain
10:55 PM 50.0 °F 49.5 °F 98% 30.01 in 10.0 mi SW 3.5 mph - 0.03 in Rain Light Rain
11:15 PM 49.8 °F 49.5 °F 99% 30.00 in 7.0 mi Calm Calm - 0.02 in Rain Rain
11:35 PM 49.3 °F 49.3 °F 100% 30.00 in 5.0 mi Calm Calm - 0.04 in Rain Light Rain
11:55 PM 48.7 °F 48.7 °F 100% 29.99 in 5.0 mi Calm Calm - 0.06 in Rain Rain